Year,Month,Day,Hour,Minute,Value (Times are PST for temperature in C)
2015,05,26,00,00,12.20
2015,05,26,00,01,12.30
2015,05,26,00,02,12.40
2015,05,26,00,03,12.50
2015,05,26,00,04,12.50
2015,05,26,00,05,12.60
2015,05,26,00,06,12.60
2015,05,26,00,07,12.60
2015,05,26,00,08,12.60
2015,05,26,00,09,12.70
2015,05,26,00,10,12.70
2015,05,26,00,11,12.70
2015,05,26,00,12,12.70
2015,05,26,00,13,12.70
2015,05,26,00,14,12.70
2015,05,26,00,15,12.70
2015,05,26,00,16,12.70
2015,05,26,00,17,12.70
2015,05,26,00,18,12.70
2015,05,26,00,19,12.70
2015,05,26,00,20,12.60
2015,05,26,00,21,12.60
2015,05,26,00,22,12.60
2015,05,26,00,23,12.60
2015,05,26,00,24,12.60
2015,05,26,00,25,12.60
2015,05,26,00,26,12.60
2015,05,26,00,27,12.60
2015,05,26,00,28,12.60
2015,05,26,00,29,12.60
2015,05,26,00,30,12.60
2015,05,26,00,31,12.60
2015,05,26,00,32,12.70
2015,05,26,00,33,12.70
2015,05,26,00,34,12.80
2015,05,26,00,35,12.90
2015,05,26,00,36,13.00
2015,05,26,00,37,13.00
2015,05,26,00,38,13.10
2015,05,26,00,39,13.10
2015,05,26,00,40,13.20
2015,05,26,00,41,13.20
2015,05,26,00,42,13.20
2015,05,26,00,43,13.20
2015,05,26,00,44,13.20
2015,05,26,00,45,13.20
2015,05,26,00,46,13.20
2015,05,26,00,47,13.20
2015,05,26,00,48,13.10
2015,05,26,00,49,13.10
2015,05,26,00,50,13.10
2015,05,26,00,51,13.10
2015,05,26,00,52,13.00
2015,05,26,00,53,13.00
2015,05,26,00,54,13.00
2015,05,26,00,55,12.90
2015,05,26,00,56,12.90
2015,05,26,00,57,12.90
2015,05,26,00,58,12.90
2015,05,26,00,59,12.90
2015,05,26,01,00,13.00
2015,05,26,01,01,13.00
2015,05,26,01,02,13.00
2015,05,26,01,03,13.00
2015,05,26,01,04,13.10
2015,05,26,01,05,13.20
2015,05,26,01,06,13.20
2015,05,26,01,07,13.20
2015,05,26,01,08,13.20
2015,05,26,01,09,13.20
2015,05,26,01,10,13.20
2015,05,26,01,11,13.20
2015,05,26,01,12,13.30
2015,05,26,01,13,13.30
2015,05,26,01,14,13.30
2015,05,26,01,15,13.30
2015,05,26,01,16,13.30
2015,05,26,01,17,13.30
2015,05,26,01,18,13.30
2015,05,26,01,19,13.30
2015,05,26,01,20,13.40
2015,05,26,01,21,13.40
2015,05,26,01,22,13.40
2015,05,26,01,23,13.40
2015,05,26,01,24,13.40
2015,05,26,01,25,13.40
2015,05,26,01,26,13.40
2015,05,26,01,27,13.40
2015,05,26,01,28,13.40
2015,05,26,01,29,13.40
2015,05,26,01,30,13.40
2015,05,26,01,31,13.40
2015,05,26,01,32,13.40
2015,05,26,01,33,13.30
2015,05,26,01,34,13.30
2015,05,26,01,35,13.30
2015,05,26,01,36,13.30
2015,05,26,01,37,13.30
2015,05,26,01,38,13.20
2015,05,26,01,39,13.30
2015,05,26,01,40,13.30
2015,05,26,01,41,13.30
2015,05,26,01,42,13.30
2015,05,26,01,43,13.30
2015,05,26,01,44,13.30
2015,05,26,01,45,13.30
2015,05,26,01,46,13.30
2015,05,26,01,47,13.30
2015,05,26,01,48,13.30
2015,05,26,01,49,13.20
2015,05,26,01,50,13.20
2015,05,26,01,51,13.30
2015,05,26,01,52,13.30
2015,05,26,01,53,13.30
2015,05,26,01,54,13.20
2015,05,26,01,55,13.20
2015,05,26,01,56,13.20
2015,05,26,01,57,13.20
2015,05,26,01,58,13.10
2015,05,26,01,59,13.10
2015,05,26,02,00,13.10
2015,05,26,02,01,13.10
2015,05,26,02,02,13.10
2015,05,26,02,03,13.10
2015,05,26,02,04,13.00
2015,05,26,02,05,13.00
2015,05,26,02,06,12.90
2015,05,26,02,07,12.90
2015,05,26,02,08,12.80
2015,05,26,02,09,12.80
2015,05,26,02,10,12.70
2015,05,26,02,11,12.70
2015,05,26,02,12,12.60
2015,05,26,02,13,12.50
2015,05,26,02,14,12.50
2015,05,26,02,15,12.40
2015,05,26,02,16,12.40
2015,05,26,02,17,12.40
2015,05,26,02,18,12.30
2015,05,26,02,19,12.30
2015,05,26,02,20,12.30
2015,05,26,02,21,12.30
2015,05,26,02,22,12.20
2015,05,26,02,23,12.20
2015,05,26,02,24,12.20
2015,05,26,02,25,12.10
2015,05,26,02,26,12.10
2015,05,26,02,27,12.10
2015,05,26,02,28,12.00
2015,05,26,02,29,12.00
2015,05,26,02,30,11.90
2015,05,26,02,31,11.90
2015,05,26,02,32,11.90
2015,05,26,02,33,11.90
2015,05,26,02,34,11.90
2015,05,26,02,35,11.80
2015,05,26,02,36,11.80
2015,05,26,02,37,11.80
2015,05,26,02,38,11.80
2015,05,26,02,39,11.80
2015,05,26,02,40,11.80
2015,05,26,02,41,11.80
2015,05,26,02,42,11.80
2015,05,26,02,43,11.80
2015,05,26,02,44,11.90
2015,05,26,02,45,11.90
2015,05,26,02,46,11.90
2015,05,26,02,47,12.00
2015,05,26,02,48,12.00
2015,05,26,02,49,12.10
2015,05,26,02,50,12.10
2015,05,26,02,51,12.20
2015,05,26,02,52,12.20
2015,05,26,02,53,12.30
2015,05,26,02,54,12.30
2015,05,26,02,55,12.40
2015,05,26,02,56,12.50
2015,05,26,02,57,12.50
2015,05,26,02,58,12.60
2015,05,26,02,59,12.60
2015,05,26,03,00,12.60
2015,05,26,03,01,12.50
2015,05,26,03,02,12.50
2015,05,26,03,03,12.50
2015,05,26,03,04,12.50
2015,05,26,03,05,12.50
2015,05,26,03,06,12.50
2015,05,26,03,07,12.50
2015,05,26,03,08,12.50
2015,05,26,03,09,12.50
2015,05,26,03,10,12.60
2015,05,26,03,11,12.60
2015,05,26,03,12,12.60
2015,05,26,03,13,12.60
2015,05,26,03,14,12.60
2015,05,26,03,15,12.60
2015,05,26,03,16,12.60
2015,05,26,03,17,12.60
2015,05,26,03,18,12.60
2015,05,26,03,19,12.60
2015,05,26,03,20,12.60
2015,05,26,03,21,12.50
2015,05,26,03,22,12.50
2015,05,26,03,23,12.50
2015,05,26,03,24,12.50
2015,05,26,03,25,12.50
2015,05,26,03,26,12.40
2015,05,26,03,27,12.40
2015,05,26,03,28,12.30
2015,05,26,03,29,12.30
2015,05,26,03,30,12.30
2015,05,26,03,31,12.30
2015,05,26,03,32,12.20
2015,05,26,03,33,12.20
2015,05,26,03,34,12.20
2015,05,26,03,35,12.20
2015,05,26,03,36,12.10
2015,05,26,03,37,12.10
2015,05,26,03,38,12.00
2015,05,26,03,39,12.00
2015,05,26,03,40,11.90
2015,05,26,03,41,11.90
2015,05,26,03,42,11.90
2015,05,26,03,43,11.90
2015,05,26,03,44,11.90
2015,05,26,03,45,11.80
2015,05,26,03,46,11.80
2015,05,26,03,47,11.80
2015,05,26,03,48,11.80
2015,05,26,03,49,11.80
2015,05,26,03,50,11.80
2015,05,26,03,51,11.80
2015,05,26,03,52,11.80
2015,05,26,03,53,11.90
2015,05,26,03,54,11.90
2015,05,26,03,55,11.90
2015,05,26,03,56,12.00
2015,05,26,03,57,12.00
2015,05,26,03,58,12.00
2015,05,26,03,59,12.00
2015,05,26,04,00,12.00
2015,05,26,04,01,12.10
2015,05,26,04,02,12.10
2015,05,26,04,03,12.10
2015,05,26,04,04,12.10
2015,05,26,04,05,12.10
2015,05,26,04,06,12.10
2015,05,26,04,07,12.10
2015,05,26,04,08,12.10
2015,05,26,04,09,12.10
2015,05,26,04,10,12.10
2015,05,26,04,11,12.10
2015,05,26,04,12,12.10
2015,05,26,04,13,12.10
2015,05,26,04,14,12.00
2015,05,26,04,15,12.00
2015,05,26,04,16,11.90
2015,05,26,04,17,11.90
2015,05,26,04,18,11.90
2015,05,26,04,19,11.80
2015,05,26,04,20,11.80
2015,05,26,04,21,11.80
2015,05,26,04,22,11.80
2015,05,26,04,23,11.80
2015,05,26,04,24,11.70
2015,05,26,04,25,11.70
2015,05,26,04,26,11.70
2015,05,26,04,27,11.70
2015,05,26,04,28,11.60
2015,05,26,04,29,11.60
2015,05,26,04,30,11.60
2015,05,26,04,31,11.60
2015,05,26,04,32,11.50
2015,05,26,04,33,11.50
2015,05,26,04,34,11.50
2015,05,26,04,35,11.50
2015,05,26,04,36,11.40
2015,05,26,04,37,11.40
2015,05,26,04,38,11.40
2015,05,26,04,39,11.30
2015,05,26,04,40,11.30
2015,05,26,04,41,11.30
2015,05,26,04,42,11.20
2015,05,26,04,43,11.20
2015,05,26,04,44,11.20
2015,05,26,04,45,11.10
2015,05,26,04,46,11.10
2015,05,26,04,47,11.00
2015,05,26,04,48,11.00
2015,05,26,04,49,11.00
2015,05,26,04,50,10.90
2015,05,26,04,51,10.90
2015,05,26,04,52,10.80
2015,05,26,04,53,10.80
2015,05,26,04,54,10.80
2015,05,26,04,55,10.70
2015,05,26,04,56,10.70
2015,05,26,04,57,10.70
2015,05,26,04,58,10.70
2015,05,26,04,59,10.60
2015,05,26,05,00,10.60
2015,05,26,05,01,10.60
2015,05,26,05,02,10.60
2015,05,26,05,03,10.50
2015,05,26,05,04,10.50
2015,05,26,05,05,10.50
2015,05,26,05,06,10.40
2015,05,26,05,07,10.40
2015,05,26,05,08,10.40
2015,05,26,05,09,10.40
2015,05,26,05,10,10.40
2015,05,26,05,11,10.40
2015,05,26,05,12,10.50
2015,05,26,05,13,10.60
2015,05,26,05,14,10.60
2015,05,26,05,15,10.70
2015,05,26,05,16,10.70
2015,05,26,05,17,10.70
2015,05,26,05,18,10.70
2015,05,26,05,19,10.80
2015,05,26,05,20,10.90
2015,05,26,05,21,11.10
2015,05,26,05,22,11.20
2015,05,26,05,23,11.20
2015,05,26,05,24,11.30
2015,05,26,05,25,11.30
2015,05,26,05,26,11.30
2015,05,26,05,27,11.30
2015,05,26,05,28,11.30
2015,05,26,05,29,11.30
2015,05,26,05,30,11.30
2015,05,26,05,31,11.30
2015,05,26,05,32,11.40
2015,05,26,05,33,11.40
2015,05,26,05,34,11.40
2015,05,26,05,35,11.50
2015,05,26,05,36,11.50
2015,05,26,05,37,11.50
2015,05,26,05,38,11.50
2015,05,26,05,39,11.50
2015,05,26,05,40,11.50
2015,05,26,05,41,11.50
2015,05,26,05,42,11.60
2015,05,26,05,43,11.60
2015,05,26,05,44,11.70
2015,05,26,05,45,11.70
2015,05,26,05,46,11.70
2015,05,26,05,47,11.70
2015,05,26,05,48,11.70
2015,05,26,05,49,11.70
2015,05,26,05,50,11.70
2015,05,26,05,51,11.70
2015,05,26,05,52,11.70
2015,05,26,05,53,11.70
2015,05,26,05,54,11.70
2015,05,26,05,55,11.70
2015,05,26,05,56,11.70
2015,05,26,05,57,11.70
2015,05,26,05,58,11.60
2015,05,26,05,59,11.70
2015,05,26,06,00,11.60
2015,05,26,06,01,11.60
2015,05,26,06,02,11.60
2015,05,26,06,03,11.60
2015,05,26,06,04,11.50
2015,05,26,06,05,11.50
2015,05,26,06,06,11.40
2015,05,26,06,07,11.40
2015,05,26,06,08,11.30
2015,05,26,06,09,11.30
2015,05,26,06,10,11.30
2015,05,26,06,11,11.20
2015,05,26,06,12,11.20
2015,05,26,06,13,11.10
2015,05,26,06,14,11.10
2015,05,26,06,15,11.00
2015,05,26,06,16,10.90
2015,05,26,06,17,10.90
2015,05,26,06,18,10.90
2015,05,26,06,19,10.80
2015,05,26,06,20,10.80
2015,05,26,06,21,10.80
2015,05,26,06,22,10.70
2015,05,26,06,23,10.70
2015,05,26,06,24,10.70
2015,05,26,06,25,10.70
2015,05,26,06,26,10.60
2015,05,26,06,27,10.60
2015,05,26,06,28,10.60
2015,05,26,06,29,10.60
2015,05,26,06,30,10.60
2015,05,26,06,31,10.60
2015,05,26,06,32,10.60
2015,05,26,06,33,10.50
2015,05,26,06,34,10.50
2015,05,26,06,35,10.50
2015,05,26,06,36,10.50
2015,05,26,06,37,10.50
2015,05,26,06,38,10.50
2015,05,26,06,39,10.50
2015,05,26,06,40,10.50
2015,05,26,06,41,10.40
2015,05,26,06,42,10.40
2015,05,26,06,43,10.40
2015,05,26,06,44,10.40
2015,05,26,06,45,10.40
2015,05,26,06,46,10.40
2015,05,26,06,47,10.40
2015,05,26,06,48,10.40
2015,05,26,06,49,10.40
2015,05,26,06,50,10.40
2015,05,26,06,51,10.40
2015,05,26,06,52,10.40
2015,05,26,06,53,10.40
2015,05,26,06,54,10.40
2015,05,26,06,55,10.40
2015,05,26,06,56,10.40
2015,05,26,06,57,10.40
2015,05,26,06,58,10.40
2015,05,26,06,59,10.40
2015,05,26,07,00,10.40
2015,05,26,07,01,10.40
2015,05,26,07,02,10.30
2015,05,26,07,03,10.40
2015,05,26,07,04,10.30
2015,05,26,07,05,10.30
2015,05,26,07,06,10.30
2015,05,26,07,07,10.30
2015,05,26,07,08,10.30
2015,05,26,07,09,10.30
2015,05,26,07,10,10.30
2015,05,26,07,11,10.30
2015,05,26,07,12,10.30
2015,05,26,07,13,10.30
2015,05,26,07,14,10.30
2015,05,26,07,15,10.30
2015,05,26,07,16,10.30
2015,05,26,07,17,10.30
2015,05,26,07,18,10.30
2015,05,26,07,19,10.30
2015,05,26,07,20,10.30
2015,05,26,07,21,10.30
2015,05,26,07,22,10.30
2015,05,26,07,23,10.30
2015,05,26,07,24,10.30
2015,05,26,07,25,10.30
2015,05,26,07,26,10.30
2015,05,26,07,27,10.30
2015,05,26,07,28,10.30
2015,05,26,07,29,10.30
2015,05,26,07,30,10.30
2015,05,26,07,31,10.30
2015,05,26,07,32,10.30
2015,05,26,07,33,10.30
2015,05,26,07,34,10.30
2015,05,26,07,35,10.30
2015,05,26,07,36,10.30
2015,05,26,07,37,10.30
2015,05,26,07,38,10.30
2015,05,26,07,39,10.30
2015,05,26,07,40,10.30
2015,05,26,07,41,10.30
2015,05,26,07,42,10.30
2015,05,26,07,43,10.30
2015,05,26,07,44,10.30
2015,05,26,07,45,10.30
2015,05,26,07,46,10.30
2015,05,26,07,47,10.30
2015,05,26,07,48,10.30
2015,05,26,07,49,10.30
2015,05,26,07,50,10.30
2015,05,26,07,51,10.40
2015,05,26,07,52,10.40
2015,05,26,07,53,10.40
2015,05,26,07,54,10.40
2015,05,26,07,55,10.40
2015,05,26,07,56,10.40
2015,05,26,07,57,10.40
2015,05,26,07,58,10.40
2015,05,26,07,59,10.40
2015,05,26,08,00,10.40
2015,05,26,08,01,10.40
2015,05,26,08,02,10.40
2015,05,26,08,03,10.40
2015,05,26,08,04,10.40
2015,05,26,08,05,10.40
2015,05,26,08,06,10.40
2015,05,26,08,07,10.50
2015,05,26,08,08,10.50
2015,05,26,08,09,10.50
2015,05,26,08,10,10.50
2015,05,26,08,11,10.50
2015,05,26,08,12,10.50
2015,05,26,08,13,10.60
2015,05,26,08,14,10.60
2015,05,26,08,15,10.60
2015,05,26,08,16,10.60
2015,05,26,08,17,10.60
2015,05,26,08,18,10.60
2015,05,26,08,19,10.60
2015,05,26,08,20,10.60
2015,05,26,08,21,10.70
2015,05,26,08,22,10.70
2015,05,26,08,23,10.70
2015,05,26,08,24,10.70
2015,05,26,08,25,10.70
2015,05,26,08,26,10.80
2015,05,26,08,27,10.80
2015,05,26,08,28,10.80
2015,05,26,08,29,10.80
2015,05,26,08,30,10.80
2015,05,26,08,31,10.80
2015,05,26,08,32,10.80
2015,05,26,08,33,10.90
2015,05,26,08,34,10.90
2015,05,26,08,35,10.90
2015,05,26,08,36,10.90
2015,05,26,08,37,11.00
2015,05,26,08,38,11.00
2015,05,26,08,39,11.00
2015,05,26,08,40,11.10
2015,05,26,08,41,11.10
2015,05,26,08,42,11.10
2015,05,26,08,43,11.10
2015,05,26,08,44,11.10
2015,05,26,08,45,11.20
2015,05,26,08,46,11.20
2015,05,26,08,47,11.20
2015,05,26,08,48,11.20
2015,05,26,08,49,11.20
2015,05,26,08,50,11.20
2015,05,26,08,51,11.30
2015,05,26,08,52,11.30
2015,05,26,08,53,11.30
2015,05,26,08,54,11.30
2015,05,26,08,55,11.30
2015,05,26,08,56,11.30
2015,05,26,08,57,11.40
2015,05,26,08,58,11.40
2015,05,26,08,59,11.40
2015,05,26,09,00,11.40
2015,05,26,09,01,11.40
2015,05,26,09,02,11.50
2015,05,26,09,03,11.50
2015,05,26,09,04,11.50
2015,05,26,09,05,11.60
2015,05,26,09,06,11.60
2015,05,26,09,07,11.60
2015,05,26,09,08,11.60
2015,05,26,09,09,11.70
2015,05,26,09,10,11.70
2015,05,26,09,11,11.70
2015,05,26,09,12,11.80
2015,05,26,09,13,11.80
2015,05,26,09,14,11.80
2015,05,26,09,15,11.90
2015,05,26,09,16,11.90
2015,05,26,09,17,11.90
2015,05,26,09,18,12.00
2015,05,26,09,19,12.00
2015,05,26,09,20,12.10
2015,05,26,09,21,12.10
2015,05,26,09,22,12.20
2015,05,26,09,23,12.30
2015,05,26,09,24,12.40
2015,05,26,09,25,12.50
2015,05,26,09,26,12.60
2015,05,26,09,27,12.70
2015,05,26,09,28,12.80
2015,05,26,09,29,12.80
2015,05,26,09,30,12.90
2015,05,26,09,31,13.00
2015,05,26,09,32,13.10
2015,05,26,09,33,13.10
2015,05,26,09,34,13.20
2015,05,26,09,35,13.20
2015,05,26,09,36,13.20
2015,05,26,09,37,13.30
2015,05,26,09,38,13.30
2015,05,26,09,39,13.30
2015,05,26,09,40,13.30
2015,05,26,09,41,13.30
2015,05,26,09,42,13.40
2015,05,26,09,43,13.40
2015,05,26,09,44,13.50
2015,05,26,09,45,13.60
2015,05,26,09,46,13.70
2015,05,26,09,47,13.90
2015,05,26,09,48,14.00
2015,05,26,09,49,14.20
2015,05,26,09,50,14.30
2015,05,26,09,51,14.30
2015,05,26,09,52,14.40
2015,05,26,09,53,14.50
2015,05,26,09,54,14.60
2015,05,26,09,55,14.70
2015,05,26,09,56,14.80
2015,05,26,09,57,14.90
2015,05,26,09,58,15.00
2015,05,26,09,59,15.00
2015,05,26,10,00,15.10
2015,05,26,10,01,15.20
2015,05,26,10,02,15.20
2015,05,26,10,03,15.30
2015,05,26,10,04,15.30
2015,05,26,10,05,15.40
2015,05,26,10,06,15.50
2015,05,26,10,07,15.50
2015,05,26,10,08,15.60
2015,05,26,10,09,15.60
2015,05,26,10,10,15.60
2015,05,26,10,11,15.70
2015,05,26,10,12,15.70
2015,05,26,10,13,15.80
2015,05,26,10,14,15.80
2015,05,26,10,15,15.80
2015,05,26,10,16,15.80
2015,05,26,10,17,15.90
2015,05,26,10,18,15.90
2015,05,26,10,19,16.00
2015,05,26,10,20,16.00
2015,05,26,10,21,16.10
2015,05,26,10,22,16.10
2015,05,26,10,23,16.10
2015,05,26,10,24,16.20
2015,05,26,10,25,16.20
2015,05,26,10,26,16.30
2015,05,26,10,27,16.30
2015,05,26,10,28,16.40
2015,05,26,10,29,16.50
2015,05,26,10,30,16.50
2015,05,26,10,31,16.50
2015,05,26,10,32,16.60
2015,05,26,10,33,16.60
2015,05,26,10,34,16.60
2015,05,26,10,35,16.60
2015,05,26,10,36,16.60
2015,05,26,10,37,16.70
2015,05,26,10,38,16.70
2015,05,26,10,39,16.70
2015,05,26,10,40,16.80
2015,05,26,10,41,16.90
2015,05,26,10,42,16.90
2015,05,26,10,43,17.00
2015,05,26,10,44,17.00
2015,05,26,10,45,17.10
2015,05,26,10,46,17.10
2015,05,26,10,47,17.10
2015,05,26,10,48,17.10
2015,05,26,10,49,17.20
2015,05,26,10,50,17.30
2015,05,26,10,51,17.30
2015,05,26,10,52,17.30
2015,05,26,10,53,17.40
2015,05,26,10,54,17.50
2015,05,26,10,55,17.50
2015,05,26,10,56,17.60
2015,05,26,10,57,17.70
2015,05,26,10,58,17.80
2015,05,26,10,59,17.80
2015,05,26,11,00,17.80
2015,05,26,11,01,17.90
2015,05,26,11,02,17.90
2015,05,26,11,03,17.90
2015,05,26,11,04,17.90
2015,05,26,11,05,17.90
2015,05,26,11,06,17.90
2015,05,26,11,07,18.00
2015,05,26,11,08,18.00
2015,05,26,11,09,18.00
2015,05,26,11,10,18.10
2015,05,26,11,11,18.10
2015,05,26,11,12,18.10
2015,05,26,11,13,18.00
2015,05,26,11,14,18.00
2015,05,26,11,15,18.00
2015,05,26,11,16,18.10
2015,05,26,11,17,18.10
2015,05,26,11,18,18.20
2015,05,26,11,19,18.20
2015,05,26,11,20,18.20
2015,05,26,11,21,18.20
2015,05,26,11,22,18.20
2015,05,26,11,23,18.20
2015,05,26,11,24,18.30
2015,05,26,11,25,18.30
2015,05,26,11,26,18.30
2015,05,26,11,27,18.40
2015,05,26,11,28,18.50
2015,05,26,11,29,18.60
2015,05,26,11,30,18.60
2015,05,26,11,31,18.70
2015,05,26,11,32,18.70
2015,05,26,11,33,18.70
2015,05,26,11,34,18.60
2015,05,26,11,35,18.60
2015,05,26,11,36,18.70
2015,05,26,11,37,18.80
2015,05,26,11,38,18.80
2015,05,26,11,39,18.80
2015,05,26,11,40,18.80
2015,05,26,11,41,18.70
2015,05,26,11,42,18.70
2015,05,26,11,43,18.70
2015,05,26,11,44,18.70
2015,05,26,11,45,18.70
2015,05,26,11,46,18.70
2015,05,26,11,47,18.70
2015,05,26,11,48,18.80
2015,05,26,11,49,18.80
2015,05,26,11,50,18.90
2015,05,26,11,51,19.00
2015,05,26,11,52,19.10
2015,05,26,11,53,19.20
2015,05,26,11,54,19.30
2015,05,26,11,55,19.30
2015,05,26,11,56,19.40
2015,05,26,11,57,19.40
2015,05,26,11,58,19.40
2015,05,26,11,59,19.50
2015,05,26,12,00,19.60
2015,05,26,12,01,19.60
2015,05,26,12,02,19.70
2015,05,26,12,03,19.80
2015,05,26,12,04,19.90
2015,05,26,12,05,20.00
2015,05,26,12,06,20.10
2015,05,26,12,07,20.20
2015,05,26,12,08,20.30
2015,05,26,12,09,20.40
2015,05,26,12,10,20.40
2015,05,26,12,11,20.40
2015,05,26,12,12,20.40
2015,05,26,12,13,20.40
2015,05,26,12,14,20.40
2015,05,26,12,15,20.40
2015,05,26,12,16,20.40
2015,05,26,12,17,20.40
2015,05,26,12,18,20.40
2015,05,26,12,19,20.30
2015,05,26,12,20,20.40
2015,05,26,12,21,20.30
2015,05,26,12,22,20.30
2015,05,26,12,23,20.30
2015,05,26,12,24,20.30
2015,05,26,12,25,20.40
2015,05,26,12,26,20.40
2015,05,26,12,27,20.50
2015,05,26,12,28,20.60
2015,05,26,12,29,20.60
2015,05,26,12,30,20.70
2015,05,26,12,31,20.70
2015,05,26,12,32,20.80
2015,05,26,12,33,20.80
2015,05,26,12,34,20.80
2015,05,26,12,35,20.80
2015,05,26,12,36,20.70
2015,05,26,12,37,20.60
2015,05,26,12,38,20.60
2015,05,26,12,39,20.50
2015,05,26,12,40,20.40
2015,05,26,12,41,20.40
2015,05,26,12,42,20.40
2015,05,26,12,43,20.40
2015,05,26,12,44,20.40
2015,05,26,12,45,20.40
2015,05,26,12,46,20.40
2015,05,26,12,47,20.40
2015,05,26,12,48,20.30
2015,05,26,12,49,20.30
2015,05,26,12,50,20.30
2015,05,26,12,51,20.30
2015,05,26,12,52,20.20
2015,05,26,12,53,20.20
2015,05,26,12,54,20.10
2015,05,26,12,55,20.00
2015,05,26,12,56,20.00
2015,05,26,12,57,20.00
2015,05,26,12,58,20.00
2015,05,26,12,59,20.00
2015,05,26,13,00,20.10
2015,05,26,13,01,20.10
2015,05,26,13,02,20.10
2015,05,26,13,03,20.10
2015,05,26,13,04,20.10
2015,05,26,13,05,20.10
2015,05,26,13,06,20.10
2015,05,26,13,07,20.10
2015,05,26,13,08,20.10
2015,05,26,13,09,20.10
2015,05,26,13,10,20.10
2015,05,26,13,11,20.00
2015,05,26,13,12,20.00
2015,05,26,13,13,20.10
2015,05,26,13,14,20.20
2015,05,26,13,15,20.30
2015,05,26,13,16,20.30
2015,05,26,13,17,20.40
2015,05,26,13,18,20.40
2015,05,26,13,19,20.30
2015,05,26,13,20,20.30
2015,05,26,13,21,20.20
2015,05,26,13,22,20.20
2015,05,26,13,23,20.20
2015,05,26,13,24,20.20
2015,05,26,13,25,20.30
2015,05,26,13,26,20.30
2015,05,26,13,27,20.30
2015,05,26,13,28,20.30
2015,05,26,13,29,20.30
2015,05,26,13,30,20.30
2015,05,26,13,31,20.30
2015,05,26,13,32,20.30
2015,05,26,13,33,20.30
2015,05,26,13,34,20.20
2015,05,26,13,35,20.20
2015,05,26,13,36,20.20
2015,05,26,13,37,20.20
2015,05,26,13,38,20.20
2015,05,26,13,39,20.10
2015,05,26,13,40,20.10
2015,05,26,13,41,20.00
2015,05,26,13,42,19.90
2015,05,26,13,43,19.90
2015,05,26,13,44,19.80
2015,05,26,13,45,19.80
2015,05,26,13,46,19.90
2015,05,26,13,47,20.00
2015,05,26,13,48,20.00
2015,05,26,13,49,20.10
2015,05,26,13,50,20.00
2015,05,26,13,51,20.00
2015,05,26,13,52,19.90
2015,05,26,13,53,19.90
2015,05,26,13,54,19.80
2015,05,26,13,55,19.80
2015,05,26,13,56,19.80
2015,05,26,13,57,19.80
2015,05,26,13,58,19.80
2015,05,26,13,59,19.80
2015,05,26,14,00,19.80
2015,05,26,14,01,19.90
2015,05,26,14,02,19.90
2015,05,26,14,03,20.00
2015,05,26,14,04,20.00
2015,05,26,14,05,20.00
2015,05,26,14,06,19.90
2015,05,26,14,07,19.80
2015,05,26,14,08,19.80
2015,05,26,14,09,19.70
2015,05,26,14,10,19.70
2015,05,26,14,11,19.70
2015,05,26,14,12,19.70
2015,05,26,14,13,19.60
2015,05,26,14,14,19.70
2015,05,26,14,15,19.70
2015,05,26,14,16,19.70
2015,05,26,14,17,19.60
2015,05,26,14,18,19.60
2015,05,26,14,19,19.70
2015,05,26,14,20,19.80
2015,05,26,14,21,19.80
2015,05,26,14,22,19.80
2015,05,26,14,23,19.70
2015,05,26,14,24,19.70
2015,05,26,14,25,19.70
2015,05,26,14,26,19.70
2015,05,26,14,27,19.70
2015,05,26,14,28,19.70
2015,05,26,14,29,19.70
2015,05,26,14,30,19.70
2015,05,26,14,31,19.60
2015,05,26,14,32,19.60
2015,05,26,14,33,19.60
2015,05,26,14,34,19.60
2015,05,26,14,35,19.60
2015,05,26,14,36,19.60
2015,05,26,14,37,19.60
2015,05,26,14,38,19.70
2015,05,26,14,39,19.70
2015,05,26,14,40,19.60
2015,05,26,14,41,19.50
2015,05,26,14,42,19.50
2015,05,26,14,43,19.40
2015,05,26,14,44,19.40
2015,05,26,14,45,19.40
2015,05,26,14,46,19.40
2015,05,26,14,47,19.40
2015,05,26,14,48,19.50
2015,05,26,14,49,19.50
2015,05,26,14,50,19.60
2015,05,26,14,51,19.60
2015,05,26,14,52,19.70
2015,05,26,14,53,19.80
2015,05,26,14,54,19.80
2015,05,26,14,55,19.80
2015,05,26,14,56,19.80
2015,05,26,14,57,19.80
2015,05,26,14,58,19.80
2015,05,26,14,59,19.80
2015,05,26,15,00,19.70
2015,05,26,15,01,19.70
2015,05,26,15,02,19.70
2015,05,26,15,03,19.70
2015,05,26,15,04,19.70
2015,05,26,15,05,19.70
2015,05,26,15,06,19.60
2015,05,26,15,07,19.50
2015,05,26,15,08,19.50
2015,05,26,15,09,19.50
2015,05,26,15,10,19.60
2015,05,26,15,11,19.60
2015,05,26,15,12,19.60
2015,05,26,15,13,19.60
2015,05,26,15,14,19.60
2015,05,26,15,15,19.60
2015,05,26,15,16,19.60
2015,05,26,15,17,19.60
2015,05,26,15,18,19.70
2015,05,26,15,19,19.70
2015,05,26,15,20,19.80
2015,05,26,15,21,19.80
2015,05,26,15,22,19.80
2015,05,26,15,23,19.80
2015,05,26,15,24,19.70
2015,05,26,15,25,19.70
2015,05,26,15,26,19.60
2015,05,26,15,27,19.60
2015,05,26,15,28,19.60
2015,05,26,15,29,19.60
2015,05,26,15,30,19.60
2015,05,26,15,31,19.60
2015,05,26,15,32,19.60
2015,05,26,15,33,19.60
2015,05,26,15,34,19.60
2015,05,26,15,35,19.60
2015,05,26,15,36,19.60
2015,05,26,15,37,19.60
2015,05,26,15,38,19.60
2015,05,26,15,39,19.60
2015,05,26,15,40,19.60
2015,05,26,15,41,19.60
2015,05,26,15,42,19.60
2015,05,26,15,43,19.60
2015,05,26,15,44,19.60
2015,05,26,15,45,19.70
2015,05,26,15,46,19.80
2015,05,26,15,47,19.90
2015,05,26,15,48,20.00
2015,05,26,15,49,20.10
2015,05,26,15,50,20.30
2015,05,26,15,51,20.30
2015,05,26,15,52,20.30
2015,05,26,15,53,20.40
2015,05,26,15,54,20.40
2015,05,26,15,55,20.50
2015,05,26,15,56,20.50
2015,05,26,15,57,20.60
2015,05,26,15,58,20.60
2015,05,26,15,59,20.60
2015,05,26,16,00,20.60
2015,05,26,16,01,20.60
2015,05,26,16,02,20.60
2015,05,26,16,03,20.60
2015,05,26,16,04,20.60
2015,05,26,16,05,20.60
2015,05,26,16,06,20.60
2015,05,26,16,07,20.50
2015,05,26,16,08,20.60
2015,05,26,16,09,20.60
2015,05,26,16,10,20.70
2015,05,26,16,11,20.80
2015,05,26,16,12,20.90
2015,05,26,16,13,21.00
2015,05,26,16,14,21.10
2015,05,26,16,15,21.20
2015,05,26,16,16,21.20
2015,05,26,16,17,21.10
2015,05,26,16,18,21.00
2015,05,26,16,19,21.00
2015,05,26,16,20,20.90
2015,05,26,16,21,20.80
2015,05,26,16,22,20.80
2015,05,26,16,23,20.70
2015,05,26,16,24,20.50
2015,05,26,16,25,20.50
2015,05,26,16,26,20.30
2015,05,26,16,27,20.20
2015,05,26,16,28,20.10
2015,05,26,16,29,20.00
2015,05,26,16,30,19.80
2015,05,26,16,31,19.70
2015,05,26,16,32,19.70
2015,05,26,16,33,19.60
2015,05,26,16,34,19.50
2015,05,26,16,35,19.50
2015,05,26,16,36,19.50
2015,05,26,16,37,19.50
2015,05,26,16,38,19.40
2015,05,26,16,39,19.30
2015,05,26,16,40,19.20
2015,05,26,16,41,19.20
2015,05,26,16,42,19.20
2015,05,26,16,43,19.10
2015,05,26,16,44,19.10
2015,05,26,16,45,19.10
2015,05,26,16,46,19.10
2015,05,26,16,47,19.00
2015,05,26,16,48,19.00
2015,05,26,16,49,18.90
2015,05,26,16,50,18.90
2015,05,26,16,51,18.90
2015,05,26,16,52,18.80
2015,05,26,16,53,18.80
2015,05,26,16,54,18.90
2015,05,26,16,55,18.90
2015,05,26,16,56,19.00
2015,05,26,16,57,19.00
2015,05,26,16,58,19.00
2015,05,26,16,59,18.90
2015,05,26,17,00,18.90
2015,05,26,17,01,18.90
2015,05,26,17,02,18.90
2015,05,26,17,03,18.80
2015,05,26,17,04,18.80
2015,05,26,17,05,18.80
2015,05,26,17,06,18.80
2015,05,26,17,07,18.80
2015,05,26,17,08,18.80
2015,05,26,17,09,18.70
2015,05,26,17,10,18.60
2015,05,26,17,11,18.60
2015,05,26,17,12,18.50
2015,05,26,17,13,18.50
2015,05,26,17,14,18.50
2015,05,26,17,15,18.50
2015,05,26,17,16,18.50
2015,05,26,17,17,18.50
2015,05,26,17,18,18.50
2015,05,26,17,19,18.50